Hourly Weather Tyrgowishte

Today, 22 October, Thursday

Time Temperature Precipitation Wind Pressure Humidity
00:00 +11°C° 0 mm 1 mps 750 mmHg 80%
01:00 +11°C° 0 mm 1 mps 750 mmHg 81%
02:00 +10°C° 0 mm 1 mps 750 mmHg 82%
03:00 +10°C° 0 mm 1 mps 749 mmHg 81%
04:00 +9°C° 0 mm 0 mps 749 mmHg 80%
05:00 +9°C° 0 mm 0 mps 749 mmHg 80%
06:00 +10°C° 0 mm 0 mps 749 mmHg 75%
07:00 +11°C° 0 mm 0 mps 749 mmHg 70%
08:00 +12°C° 0 mm 0 mps 749 mmHg 66%
09:00 +14°C° 0 mm 0 mps 750 mmHg 58%
10:00 +18°C° 0 mm 1 mps 750 mmHg 49%
11:00 +21°C° 0 mm 1 mps 750 mmHg 41%
12:00 +22°C° 0 mm 1 mps 749 mmHg 38%
13:00 +23°C° 0 mm 1 mps 749 mmHg 34%
14:00 +24°C° 0 mm 1 mps 749 mmHg 31%
15:00 +22°C° 0 mm 1 mps 748 mmHg 35%
16:00 +21°C° 0 mm 1 mps 748 mmHg 39%
17:00 +19°C° 0 mm 1 mps 748 mmHg 44%
18:00 +18°C° 0 mm 1 mps 748 mmHg 47%
19:00 +15°C° 0 mm 0 mps 748 mmHg 51%
20:00 +14°C° 0 mm 0 mps 748 mmHg 54%
21:00 +14°C° 0 mm 0 mps 748 mmHg 56%
22:00 +14°C° 0 mm 1 mps 748 mmHg 58%
23:00 +14°C° 0 mm 1 mps 748 mmHg 60%

Tomorrow, 23 October, Friday

Time Temperature Precipitation Wind Pressure Humidity
00:00 +14°C° 0 mm 1 mps 748 mmHg 61%
01:00 +13°C° 0 mm 1 mps 748 mmHg 62%
02:00 +13°C° 0 mm 1 mps 748 mmHg 63%
03:00 +13°C° 0 mm 1 mps 748 mmHg 64%
04:00 +12°C° 0 mm 0 mps 747 mmHg 64%
05:00 +11°C° 0 mm 0 mps 747 mmHg 65%
06:00 +12°C° 0 mm 0 mps 747 mmHg 62%
07:00 +13°C° 0 mm 0 mps 747 mmHg 59%
08:00 +14°C° 0 mm 0 mps 747 mmHg 57%
09:00 +17°C° 0 mm 0 mps 747 mmHg 50%
10:00 +19°C° 0 mm 0 mps 747 mmHg 43%
11:00 +24°C° 0 mm 1 mps 747 mmHg 35%
12:00 +25°C° 0 mm 1 mps 747 mmHg 33%
13:00 +26°C° 0 mm 1 mps 746 mmHg 31%
14:00 +27°C° 0 mm 1 mps 746 mmHg 29%
15:00 +25°C° 0 mm 1 mps 746 mmHg 34%
16:00 +24°C° 0 mm 1 mps 745 mmHg 39%
17:00 +20°C° 0 mm 0 mps 745 mmHg 43%
18:00 +21°C° 0 mm 1 mps 745 mmHg 46%
19:00 +20°C° 0 mm 1 mps 745 mmHg 48%
20:00 +18°C° 0 mm 1 mps 745 mmHg 51%
21:00 +18°C° 0 mm 1 mps 745 mmHg 53%
22:00 +16°C° 0 mm 1 mps 745 mmHg 54%
23:00 +16°C° 0 mm 1 mps 745 mmHg 56%

Day after tomorrow, 24 October, Saturday

Time Temperature Precipitation Wind Pressure Humidity
00:00 +16°C° 0 mm 1 mps 744 mmHg 57%
01:00 +15°C° 0 mm 1 mps 744 mmHg 59%
02:00 +15°C° 0 mm 1 mps 744 mmHg 60%
03:00 +15°C° 0 mm 1 mps 744 mmHg 61%
04:00 +14°C° 0 mm 1 mps 744 mmHg 61%
05:00 +13°C° 0 mm 0 mps 743 mmHg 62%
06:00 +14°C° 0 mm 0 mps 743 mmHg 59%
07:00 +16°C° 0 mm 1 mps 743 mmHg 57%
08:00 +18°C° 0 mm 1 mps 744 mmHg 54%
09:00 +18°C° 0 mm 0 mps 744 mmHg 48%
10:00 +20°C° 0 mm 0 mps 744 mmHg 41%
11:00 +23°C° 0 mm 0 mps 744 mmHg 35%
12:00 +25°C° 0 mm 1 mps 743 mmHg 34%
13:00 +26°C° 0 mm 2 mps 743 mmHg 32%
14:00 +26°C° 0 mm 2 mps 743 mmHg 31%
15:00 +24°C° 0 mm 2 mps 743 mmHg 35%
16:00 +23°C° 0 mm 2 mps 743 mmHg 39%
17:00 +20°C° 0 mm 2 mps 743 mmHg 43%
18:00 +19°C° 0 mm 2 mps 743 mmHg 44%
19:00 +18°C° 0 mm 2 mps 743 mmHg 45%
20:00 +18°C° 0 mm 2 mps 743 mmHg 46%
21:00 +18°C° 0 mm 1 mps 744 mmHg 49%
22:00 +18°C° 0 mm 1 mps 744 mmHg 53%
23:00 +18°C° 0 mm 1 mps 744 mmHg 56%

, 25 October, Sunday

Time Temperature Precipitation Wind Pressure Humidity
00:00 +16°C° 0 mm 1 mps 744 mmHg 59%
01:00 +16°C° 0 mm 1 mps 744 mmHg 62%
02:00 +15°C° 0 mm 0 mps 744 mmHg 65%
03:00 +16°C° 0 mm 1 mps 744 mmHg 65%
04:00 +15°C° 0 mm 1 mps 744 mmHg 65%
05:00 +15°C° 0 mm 1 mps 745 mmHg 65%
06:00 +15°C° 0 mm 1 mps 745 mmHg 65%
07:00 +16°C° 0 mm 2 mps 745 mmHg 66%
08:00 +16°C° 0 mm 2 mps 745 mmHg 66%
09:00 +17°C° 0 mm 3 mps 745 mmHg 63%
10:00 +18°C° 0 mm 3 mps 745 mmHg 60%
11:00 +19°C° 0 mm 4 mps 745 mmHg 57%
12:00 +20°C° 0 mm 4 mps 745 mmHg 56%
13:00 +20°C° 0 mm 4 mps 745 mmHg 55%
14:00 +21°C° 0 mm 4 mps 745 mmHg 54%
15:00 +20°C° 0 mm 4 mps 744 mmHg 58%
16:00 +19°C° 0 mm 4 mps 744 mmHg 62%
17:00 +18°C° 0 mm 3 mps 744 mmHg 66%
18:00 +17°C° 0 mm 3 mps 744 mmHg 73%
19:00 +16°C° 0 mm 3 mps 744 mmHg 80%
20:00 +14°C° 0 mm 3 mps 744 mmHg 86%
21:00 +14°C° 0 mm 3 mps 744 mmHg 88%
22:00 +14°C° 0 mm 3 mps 745 mmHg 90%
23:00 +15°C° 0 mm 2 mps 745 mmHg 91%

25 October, Sunday

Time Temperature Precipitation Wind Pressure Humidity
00:00 +16°C° 0 mm 1 mps 744 mmHg 59%
01:00 +16°C° 0 mm 1 mps 744 mmHg 62%
02:00 +15°C° 0 mm 0 mps 744 mmHg 65%
03:00 +16°C° 0 mm 1 mps 744 mmHg 65%
04:00 +15°C° 0 mm 1 mps 744 mmHg 65%
05:00 +15°C° 0 mm 1 mps 745 mmHg 65%
06:00 +15°C° 0 mm 1 mps 745 mmHg 65%
07:00 +16°C° 0 mm 2 mps 745 mmHg 66%
08:00 +16°C° 0 mm 2 mps 745 mmHg 66%
09:00 +17°C° 0 mm 3 mps 745 mmHg 63%
10:00 +18°C° 0 mm 3 mps 745 mmHg 60%
11:00 +19°C° 0 mm 4 mps 745 mmHg 57%
12:00 +20°C° 0 mm 4 mps 745 mmHg 56%
13:00 +20°C° 0 mm 4 mps 745 mmHg 55%
14:00 +21°C° 0 mm 4 mps 745 mmHg 54%
15:00 +20°C° 0 mm 4 mps 744 mmHg 58%
16:00 +19°C° 0 mm 4 mps 744 mmHg 62%
17:00 +18°C° 0 mm 3 mps 744 mmHg 66%
18:00 +17°C° 0 mm 3 mps 744 mmHg 73%
19:00 +16°C° 0 mm 3 mps 744 mmHg 80%
20:00 +14°C° 0 mm 3 mps 744 mmHg 86%
21:00 +14°C° 0 mm 3 mps 744 mmHg 88%
22:00 +14°C° 0 mm 3 mps 745 mmHg 90%
23:00 +15°C° 0 mm 2 mps 745 mmHg 91%

26 October, Monday

Time Temperature Precipitation Wind Pressure Humidity
00:00 +15°C° 0 mm 2 mps 744 mmHg 92%
01:00 +15°C° 0 mm 2 mps 744 mmHg 93%
02:00 +15°C° 0 mm 2 mps 744 mmHg 93%
03:00 +15°C° 0 mm 2 mps 744 mmHg 94%
04:00 +15°C° 0 mm 2 mps 743 mmHg 94%
05:00 +15°C° 0 mm 2 mps 743 mmHg 95%
06:00 +15°C° 0.1 mm 2 mps 743 mmHg 94%
07:00 +16°C° 0.1 mm 2 mps 743 mmHg 93%
08:00 +16°C° 0.1 mm 2 mps 743 mmHg 93%
09:00 +17°C° 0.2 mm 2 mps 743 mmHg 84%
10:00 +18°C° 0.2 mm 2 mps 743 mmHg 76%
11:00 +19°C° 0.2 mm 2 mps 743 mmHg 68%
12:00 +20°C° 0.3 mm 3 mps 743 mmHg 62%
13:00 +21°C° 0.3 mm 3 mps 743 mmHg 57%
14:00 +22°C° 0.3 mm 3 mps 743 mmHg 51%
15:00 +21°C° 0.2 mm 3 mps 742 mmHg 57%
16:00 +20°C° 0.2 mm 2 mps 742 mmHg 63%
17:00 +19°C° 0.2 mm 2 mps 742 mmHg 69%
18:00 +18°C° 0.2 mm 2 mps 742 mmHg 75%
19:00 +18°C° 0.2 mm 2 mps 742 mmHg 80%
20:00 +18°C° 0.2 mm 1 mps 742 mmHg 86%
21:00 +18°C° 0.4 mm 1 mps 742 mmHg 85%
22:00 +18°C° 0.4 mm 1 mps 742 mmHg 83%
23:00 +18°C° 0.4 mm 1 mps 742 mmHg 82%

27 October, Tuesday

Time Temperature Precipitation Wind Pressure Humidity
00:00 +18°C° 0.1 mm 1 mps 742 mmHg 83%
01:00 +18°C° 0.1 mm 1 mps 742 mmHg 83%
02:00 +16°C° 0.1 mm 1 mps 742 mmHg 84%
03:00 +15°C° 0 mm 0 mps 742 mmHg 86%
04:00 +14°C° 0 mm 0 mps 742 mmHg 88%
05:00 +13°C° 0 mm 0 mps 742 mmHg 90%
06:00 +14°C° 0 mm 0 mps 742 mmHg 88%
07:00 +14°C° 0 mm 0 mps 743 mmHg 87%
08:00 +15°C° 0 mm 0 mps 743 mmHg 85%
09:00 +18°C° 0 mm 1 mps 743 mmHg 76%
10:00 +20°C° 0 mm 1 mps 743 mmHg 68%
11:00 +21°C° 0 mm 2 mps 743 mmHg 60%
12:00 +23°C° 0 mm 2 mps 743 mmHg 55%
13:00 +24°C° 0 mm 2 mps 743 mmHg 50%
14:00 +25°C° 0 mm 3 mps 743 mmHg 45%
15:00 +24°C° 0 mm 2 mps 743 mmHg 50%
16:00 +21°C° 0 mm 2 mps 742 mmHg 54%
17:00 +20°C° 0 mm 2 mps 742 mmHg 59%
18:00 +19°C° 0 mm 2 mps 742 mmHg 63%
19:00 +18°C° 0 mm 2 mps 743 mmHg 67%
20:00 +18°C° 0 mm 2 mps 743 mmHg 71%
21:00 +17°C° 0 mm 2 mps 743 mmHg 74%
22:00 +17°C° 0 mm 2 mps 743 mmHg 77%
23:00 +16°C° 0 mm 2 mps 743 mmHg 81%
Show more